Lihue, HI

10:47 AM HST on May 25, 2017 (GMT -1000)
Lihue

Weather History for PHLI - August, 2014

Change the Weather History Date:

Tuesday, August 19, 2014

  Actual Average Record
Temperature  
Mean Temperature 78 °F 80 °F  
Max Temperature 84 °F 85 °F 88 °F (1959)
Min Temperature 72 °F 75 °F 70 °F (1955)
Degree Days  
Heating Degree Days 0 0  
Month to date heating degree days 0 0  
Since 1 June heating degree days 0 0  
Since 1 July heating degree days 0 0  
Cooling Degree Days 13 15  
Month to date cooling degree days 274 284  
Year to date cooling degree days 2338 2356  
Since 1 June cooling degree days 1117 1117  
Growing Degree Days 28 (Base 50)    
Moisture  
Dew Point 70 °F    
Average Humidity 76    
Maximum Humidity 87    
Minimum Humidity 65    
Precipitation  
Precipitation 0.18 in 0.07 in 0.75 in (1986)
Month to date precipitation 3.49 1.38  
Year to date precipitation 23.86 20.70  
Snow  
Snow 0.00 in - - ()
Month to date snowfall 0.0  
Since 1 June snowfall 0.0  
Since 1 July snowfall 0.0  
Snow Depth 0.00 in    
Sea Level Pressure  
Sea Level Pressure 29.99 in    
Wind  
Wind Speed 13 mph (NE)    
Max Wind Speed 23 mph    
Max Gust Speed 26 mph    
Visibility 10 miles    
Events Rain    
T = Trace of Precipitation, MM = Missing Value Source: NWS Daily Summary

Daily Weather History Graph

Daily Weather History Graph

Search for Another Location

Airport or City:

Trip Planner

Search our weather history database for the weather conditions in past years. The results will help you decide how hot, cold, wet, or windy it might be!

Date:

Astronomy

Aug. 19, 2014 Rise Set
Actual Time 6:16 AM HST 7:05 PM HST
Civil Twilight 5:53 AM HST 7:28 PM HST
Nautical Twilight 5:26 AM HST 7:55 PM HST
Astronomical Twilight 4:58 AM HST 8:22 PM HST
Moon 1:29 AM HST (8/19) 2:58 PM HST (8/19)
Length of Visible Light 13h 34m
Length of Day
12h 48m
Waning Crescent, 27% of the Moon is Illuminated
Aug 19
Waning Crescent
Aug 25
New
Sep 2
First Quarter
Sep 8
Full
Sep 15
Last Quarter

Hourly Weather History & Observations

Time (HST) Temp. Heat Index Dew Point Humidity Pressure Visibility Wind Dir Wind Speed Gust Speed Precip Events Conditions
12:29 AM 73.4 °F - 66.2 °F 78% 30.03 in 10.0 mi NE 11.5 mph - 0.07 in   Overcast
12:53 AM 75.9 °F - 70.0 °F 82% 30.02 in 10.0 mi ENE 8.1 mph - 0.09 in Rain Light Rain
1:53 AM 75.9 °F - 71.1 °F 85% 30.01 in 7.0 mi NE 16.1 mph 19.6 mph 0.02 in Rain Light Rain
2:43 AM 75.2 °F - 69.8 °F 83% 30.00 in 10.0 mi NNE 11.5 mph - 0.00 in   Mostly Cloudy
2:53 AM 75.9 °F - 70.0 °F 82% 29.99 in 10.0 mi ENE 12.7 mph - 0.00 in   Mostly Cloudy
3:11 AM 75.2 °F - 69.8 °F 83% 30.00 in 10.0 mi NE 10.4 mph - N/A   Scattered Clouds
3:53 AM 75.9 °F - 69.1 °F 79% 29.99 in 10.0 mi NE 12.7 mph - N/A   Scattered Clouds
4:46 AM 73.4 °F - 68.0 °F 83% 29.99 in 4.0 mi NE 9.2 mph 26.5 mph 0.07 in Rain Light Rain
4:53 AM 75.0 °F - 69.1 °F 82% 29.98 in 10.0 mi NE 11.5 mph - 0.07 in Rain Light Rain
5:49 AM 75.2 °F - 69.8 °F 83% 29.99 in 10.0 mi NE 13.8 mph - 0.00 in   Mostly Cloudy
5:53 AM 75.9 °F - 69.1 °F 79% 29.99 in 10.0 mi NE 13.8 mph - 0.00 in   Overcast
6:19 AM 75.2 °F - 68.0 °F 78% 29.99 in 10.0 mi NE 12.7 mph - N/A   Mostly Cloudy
6:53 AM 77.0 °F - 70.0 °F 79% 29.99 in 10.0 mi NE 15.0 mph - N/A   Scattered Clouds
7:53 AM 79.0 °F - 71.1 °F 77% 30.00 in 10.0 mi ENE 16.1 mph - N/A   Scattered Clouds
8:53 AM 79.0 °F - 70.0 °F 74% 30.00 in 10.0 mi ENE 15.0 mph - N/A   Scattered Clouds
9:53 AM 81.0 °F 84.4 °F 70.0 °F 69% 30.00 in 10.0 mi ENE 13.8 mph - N/A   Partly Cloudy
10:53 AM 82.4 °F 86.3 °F 69.8 °F 66% 30.01 in 10.0 mi ENE 12.7 mph - N/A   Scattered Clouds
11:53 AM 82.0 °F 86.3 °F 71.1 °F 69% 29.99 in 10.0 mi ENE 16.1 mph - N/A   Scattered Clouds
12:53 PM 82.9 °F 87.5 °F 71.1 °F 67% 29.98 in 10.0 mi ENE 15.0 mph - 0.00 in   Mostly Cloudy
1:53 PM 82.9 °F 87.5 °F 71.1 °F 67% 29.96 in 10.0 mi ENE 16.1 mph - N/A   Mostly Cloudy
2:53 PM 82.9 °F 87.5 °F 71.1 °F 67% 29.95 in 10.0 mi ENE 12.7 mph - N/A   Clear
3:53 PM 82.0 °F 85.9 °F 70.0 °F 67% 29.94 in 10.0 mi NE 12.7 mph - N/A   Mostly Cloudy
4:09 PM 82.4 °F 86.3 °F 69.8 °F 66% 29.95 in 10.0 mi NE 12.7 mph - N/A   Scattered Clouds
4:53 PM 82.0 °F 85.9 °F 70.0 °F 67% 29.94 in 10.0 mi ENE 13.8 mph - N/A   Mostly Cloudy
5:53 PM 81.0 °F 84.1 °F 69.1 °F 67% 29.94 in 10.0 mi NE 12.7 mph - N/A   Scattered Clouds
6:53 PM 79.0 °F - 70.0 °F 74% 29.96 in 10.0 mi ENE 10.4 mph - N/A   Mostly Cloudy
7:53 PM 78.1 °F - 69.1 °F 74% 29.98 in 10.0 mi NE 12.7 mph - N/A   Mostly Cloudy
8:04 PM 78.8 °F - 69.8 °F 74% 29.99 in 10.0 mi NE 13.8 mph - N/A   Scattered Clouds
8:53 PM 78.1 °F - 68.0 °F 71% 29.99 in 10.0 mi ENE 12.7 mph - N/A   Mostly Cloudy
9:53 PM 78.1 °F - 68.0 °F 71% 30.01 in 10.0 mi NE 10.4 mph - N/A   Overcast
10:53 PM 78.1 °F - 68.0 °F 71% 30.01 in 10.0 mi ENE 11.5 mph - N/A   Overcast
11:07 PM 78.8 °F - 69.8 °F 74% 30.02 in 10.0 mi ENE 10.4 mph - N/A   Overcast
11:17 PM 78.8 °F - 68.0 °F 69% 30.02 in 10.0 mi ENE 12.7 mph - N/A   Overcast
11:53 PM 78.1 °F - 70.0 °F 76% 30.00 in 10.0 mi ENE 12.7 mph - 0.00 in Rain Light Rain